Location: Chrdilo
(42.2158°N, 44.4258°E)
Time: 21:29:19
(UTC+00:00)

Daily predictions for brighter satellites

Satellite Brightness Start Highest point End
(mag) Time Altitude Azimuth Time Altitude Azimuth Time Altitude Azimuth
CSL-04 Rocket 3.6 16:12:33 10° SSE 16:17:50 84° ENE 16:23:09 10° NNW
SL-8 R/B 3.9 16:13:28 10° WNW 16:18:17 67° NNE 16:23:06 10° ESE
CZ-2C R/B 2.9 16:13:10 10° N 16:18:22 77° WNW 16:23:39 10° SSW
BREEZE-M DEB (TANK) 3.9 16:16:03 10° WSW 16:18:43 59° NNW 16:24:28 10° ENE
SL-16 R/B 4.3 16:27:26 10° NNE 16:28:47 11° NE 16:30:07 10° NE
Cosmos 2360 Rocket 3.5 16:26:09 10° NW 16:31:25 41° WSW 16:36:38 10° S
Cosmos 405 2.9 16:28:43 10° S 16:32:10 87° W 16:35:40 10° N
Okean-O 4.2 16:29:32 10° SSW 16:33:39 38° W 16:37:48 10° NNW
NOSS 0 Rocket 4.5 16:28:30 10° NNW 16:34:25 43° ENE 16:40:07 11° SE
SAR-Lupe-4 4.2 16:32:33 10° N 16:36:07 62° WNW 16:39:39 10° SSW
Cosmos 2098 Rocket 4.4 16:29:37 10° N 16:36:57 80° E 16:44:17 10° S
ERS-2 2.4 16:33:26 10° N 16:37:04 71° WNW 16:40:41 10° SSW
Abrixas rocket 2.5 16:36:50 10° W 16:38:22 28° NNW 16:39:55 10° NE
Cosmos 2251 Rocket 3.5 16:33:40 10° S 16:38:58 67° ESE 16:44:17 10° NNE
Cosmos 2058 Rocket 3.0 16:34:49 10° S 16:39:10 82° E 16:43:32 10° N
CZ-4 R/B 4.1 16:37:08 10° SW 16:40:25 22° W 16:43:44 10° NW
Ariane Rocket 3.4 16:35:56 10° SE 16:40:42 44° ENE 16:45:29 10° N
Meteor 2-1 Rocket 4.4 16:35:40 10° S 16:41:21 57° E 16:47:09 10° NNE
Cosmos 1953 Rocket 3.9 16:37:14 10° NNW 16:41:33 67° W 16:45:50 10° S
ATLAS 3B R/B 2.9 16:35:46 10° NNW 16:42:50 71° NE 16:49:49 11° SE
SL-4 R/B 3.0 16:40:51 10° SSW 16:44:35 30° SE 16:48:34 10° ENE
COSMOS 2428 2.7 16:40:11 10° NNW 16:45:58 84° ENE 16:51:42 10° SSE
Cosmos 2219 Rocket 2.3 16:40:56 10° NNW 16:46:39 82° WSW 16:52:19 10° SSE
Cosmos 389 Rocket 3.3 16:43:59 10° SSE 16:47:07 31° E 16:50:18 10° NNE
Cosmos 614 Rocket 4.0 16:42:28 10° S 16:47:29 57° ESE 16:52:29 10° NNE
Meteor 2-10 Rocket 4.3 16:42:52 10° SSW 16:48:02 60° WNW 16:53:29 10° N
Cosmos 1812 Rocket 4.5 16:45:11 10° SSE 16:48:58 29° E 16:52:49 10° NNE
Cosmos 1455 2.5 16:48:56 10° SSW 16:52:39 69° W 16:56:23 10° N
Cosmos 1092 Rocket 4.1 16:46:50 10° N 16:53:07 84° W 16:59:16 10° S
SPOT 3 Rocket 4.5 16:50:17 15° ESE 16:53:51 31° ENE 16:58:21 10° N
BREEZE-M DEB (TANK) 1.9 16:51:49 10° SW 16:57:24 78° SSE 16:59:36 11° ENE
FALCON 9 DEB 3.5 16:56:41 10° SSW 16:59:26 31° SE 17:00:48 21° E
RESURS DK-1 3.7 16:58:27 10° SW 17:02:23 43° WNW 17:06:21 10° NNE
Cosmos 1992 Rocket 4.5 16:58:19 10° NNW 17:03:29 61° WSW 17:08:35 10° S
FALCON 9 DEB 3.0 17:02:29 10° SSW 17:05:24 46° SE 17:07:18 18° ENE
Resurs 01 Rocket 2.2 17:07:41 22° SE 17:10:10 41° ENE 17:14:21 10° N
Exosat Rocket 3.7 17:05:32 10° NNW 17:11:40 83° WSW 17:15:56 15° SSE
Resurs 1-3 3.5 17:11:00 16° SSE 17:14:29 79° ENE 17:18:53 10° N
FALCON 9 DEB 2.6 17:14:50 10° SW 17:17:50 69° SE 17:19:33 23° ENE
Cosmos 2237 Rocket 2.4 17:12:25 10° NNW 17:17:58 56° ENE 17:21:11 25° SE
Cosmos 909 Rocket 4.4 17:14:51 10° SW 17:21:10 67° NW 17:27:35 10° NNE
Cosmos 405 Rocket 2.7 17:17:22 10° N 17:21:22 85° W 17:23:56 21° S
IRIDIUM 104 4.3 17:17:00 11° S 17:22:03 68° E 17:27:14 10° N
Cosmos 407 Rocket 3.4 17:17:18 10° S 17:22:20 62° ESE 17:27:27 10° NNE
Cosmos 2279 Rocket 3.9 17:16:58 10° S 17:23:09 85° E 17:29:22 10° N
Cosmos 2058 3.9 17:22:31 10° NNW 17:26:31 45° W 17:30:29 10° SSW
Cosmos 2082 4.5 17:30:05 28° ESE 17:30:25 28° ESE 17:35:06 10° NE
Cosmos 2227 Rocket 2.2 17:25:22 10° S 17:30:52 55° ESE 17:36:24 10° NNE
Cosmos 1023 Rocket 4.3 17:26:01 10° S 17:31:02 68° ESE 17:36:06 10° NNE
IRIDIUM 114 4.2 17:26:07 11° S 17:31:11 82° E 17:36:25 10° N
Landsat 7 3.9 17:33:16 33° SE 17:35:09 57° ENE 17:39:49 10° N
OBJECT-B 3.1 17:32:49 10° SSW 17:35:27 23° W 17:38:06 10° NW
Cosmos 1356 4.2 17:34:16 10° NNW 17:37:35 48° W 17:39:15 25° SSW
Cosmos 2297 Rocket 2.1 17:32:03 10° SSW 17:37:42 81° ESE 17:43:23 10° NNE
Cosmos 2084 Rocket 3.1 17:34:01 10° SSW 17:37:56 67° ESE 17:41:56 10° NE
FALCON 9 DEB 2.7 17:35:09 10° SW 17:38:13 90° ENE 17:38:27 74° NE
Cosmos 1140 Rocket 3.3 17:33:38 10° SSW 17:38:44 77° ESE 17:43:52 10° NNE
Cosmos 1954 Rocket 4.4 17:38:07 35° SE 17:39:12 39° ESE 17:43:59 10° NE
Cosmos 1825 4.2 17:36:23 10° NNW 17:39:33 26° W 17:42:43 10° SSW
Lacrosse 5 rocket 4.3 17:38:52 10° NNW 17:40:10 11° N 17:41:28 10° NNE
IRIDIUM 103 4.3 17:35:15 11° S 17:40:20 82° W 17:45:35 10° N
ATLAS 5 CENTAUR R/B 3.0 17:40:37 10° WNW 17:42:19 20° SW 17:42:35 20° SW
Cosmos 2219 3.1 17:39:30 10° SSW 17:45:06 84° ESE 17:50:45 10° NNE
BREEZE M DEB (TANK) 3.7 17:37:19 10° WSW 17:46:30 53° NNW 17:49:05 15° NE
Cosmos 2333 Rocket 4.4 17:44:20 10° NW 17:48:34 21° W 17:52:46 10° SSW
Cosmos-2242 2.9 17:47:29 44° SSE 17:48:45 71° E 17:53:03 10° NNE
Spot 2 Rocket 4.0 17:49:11 38° ESE 17:50:17 44° ENE 17:55:05 10° N
Cosmos 2266 Rocket 4.0 17:44:29 10° N 17:50:51 68° E 17:53:36 35° SSE
Cosmos 2151 3.0 17:53:16 10° N 17:57:35 79° W 17:58:39 50° S
Cosmos 44 Rocket 3.8 17:59:05 42° E 17:59:05 42° E 18:03:14 10° NE
Genesis I 3.2 17:55:32 10° NNW 17:59:32 67° NE 17:59:39 67° ENE
COSMOS 2455 2.9 17:57:39 28° S 18:00:40 55° ESE 18:06:33 10° NE
Cosmos 1633 3.0 18:00:00 10° NNW 18:03:30 54° W 18:03:51 51° WSW
ARIANE 5 R/B 2.8 18:03:28 52° ENE 18:03:33 52° ENE 18:07:49 10° N
USA 245 3.4 18:08:57 58° N 18:08:57 58° N 18:11:37 10° N
Meteor 1-4 Rocket 4.2 18:10:50 24° NNE 18:10:50 24° NNE 18:12:27 10° NNE
Timation 2 Rocket 4.2 18:05:06 10° SSW 18:11:43 74° WNW 18:18:04 10° NNE
IGS 5A 4.2 18:11:15 39° SW 18:12:13 48° W 18:16:15 10° NNW
CZ-2C R/B 4.0 18:09:27 10° N 18:13:50 64° WNW 18:15:38 34° SW
Cosmos 1980 4.4 18:08:25 10° NW 18:13:52 49° WSW 18:16:08 32° SSW
Cosmos 2221 4.4 18:16:10 19° NE 18:16:10 19° NE 18:17:45 10° NNE
SL-16 R/B 2.3 18:08:36 10° NNW 18:14:13 57° ENE 18:15:06 51° E
Timation 1 Rocket 4.2 18:13:28 36° S 18:15:59 72° ESE 18:21:57 10° NNE
BREEZE M DEB (TANK) 3.8 18:15:00 10° WSW 18:18:39 87° SSE 18:30:39 10° ENE
Cosmos 1763 Rocket 4.1 18:19:14 10° N 18:23:52 41° ENE 18:23:52 41° ENE
SL-4 R/B 2.8 18:19:41 10° WSW 18:24:02 57° NNW 18:27:18 19° NE
SPOT 1/Viking Rocket 3.7 18:24:20 53° SSW 18:25:26 70° WSW 18:30:40 10° NNW
Meteor 2-15 4.3 18:29:23 63° SE 18:29:56 66° E 18:35:56 10° NNE
ATLAS 3B R/B 4.4 18:27:24 10° WNW 18:33:00 25° WSW 18:37:07 16° SSW
USA 215 3.3 18:31:38 50° ESE 18:33:27 72° NE 18:39:58 10° NW
Cosmos 676 Rocket 4.3 18:35:08 37° SW 18:37:06 63° WNW 18:42:16 10° NNE
Cosmos 1553 Rocket 4.4 18:39:15 43° ENE 18:39:15 43° ENE 18:44:20 10° NNE
CARTOSAT-1 3.9 18:39:48 62° NW 18:39:48 62° NW 18:43:32 10° NNW
Terra 2.3 18:41:49 50° NE 18:41:49 50° NE 18:45:43 10° N
Cosmos 1766 Rocket 4.0 18:37:55 10° NNW 18:41:39 57° NW 18:41:39 57° NW
SPOT 5 3.0 18:46:39 65° NNW 18:46:39 65° NNW 18:50:44 10° NNW
Resurs 01 Rocket 3.8 18:45:15 16° WSW 18:46:48 19° W 18:49:59 10° NW
Okean 3 Rocket 4.2 18:43:16 10° NNW 18:47:18 54° WNW 18:47:18 54° WNW
ERS-1 Rocket 3.1 18:54:05 70° WNW 18:54:05 70° WNW 18:58:44 10° NNW
Cosmos 2237 Rocket 4.0 18:57:29 10° NW 19:01:33 21° W 19:03:02 19° WSW
Cosmos 2263 Rocket 3.4 19:10:10 32° NE 19:10:10 32° NE 19:13:11 10° NNE
Cosmos 2227 Rocket 4.3 19:10:43 10° WSW 19:15:16 24° NW 19:19:49 10° N
SeaSat 1 4.5 19:13:38 10° NE 19:14:59 18° NE 19:14:59 18° NE
BREEZE-M DEB (TANK) 4.2 19:15:30 10° WNW 19:20:03 87° NNE 19:20:51 71° E
Lacrosse 5 rocket 3.7 19:17:24 10° NNW 19:20:25 21° NNE 19:20:25 21° NNE
Cosmos 1603 4.3 19:23:08 10° NNW 19:27:44 50° NNE 19:27:44 50° NNE
USA 229 DEB 3.9 19:27:53 10° NNW 19:35:14 70° NE 19:35:36 69° ENE
USA 229 3.9 19:27:59 10° NNW 19:35:20 69° NE 19:35:43 68° ENE
Cosmos 1745 Rocket 4.2 19:37:54 10° N 19:43:21 68° NNW 19:43:21 68° NNW
NOSS 3-1 (A) 4.0 19:45:35 10° NW 19:53:16 81° NE 19:53:36 79° E
S3M 4.3 19:55:29 63° NW 19:55:29 63° NW 20:01:11 10° N
SL-16 R/B 4.1 19:53:44 10° NW 19:56:59 20° W 19:56:59 20° W
NOSS 3-1 (C) 4.5 20:10:03 10° NW 20:16:52 52° W 20:16:52 52° W
Terra 4.4 20:20:42 13° WNW 20:20:42 13° WNW 20:21:57 10° NW
Cosmos 2263 Rocket 4.0 20:51:48 23° NW 20:52:02 23° NW 20:56:25 10° N
SeaSat 1 4.4 20:51:34 10° N 20:54:45 25° NNW 20:54:45 25° NNW
USA 281 3.8 21:00:20 49° NE 21:00:20 49° NE 21:06:20 10° NNW
Cosmos 1844 Rocket 4.0 21:06:30 36° NNE 21:06:30 36° NNE 21:09:44 10° NNE
SJ 16-02 4.2 21:25:52 12° NE 21:25:52 12° NE 21:26:17 10° NE
Cosmos 1833 Rocket 4.2 21:26:18 10° N 21:31:13 30° NE 21:31:14 30° NE
CZ-2D R/B 4.2 21:29:29 10° NE 21:32:09 19° ENE 21:32:09 19° ENE
Cosmos 2278 Rocket 3.5 21:52:00 33° ENE 21:52:00 33° ENE 21:55:28 10° NE
Cosmos 2218 Rocket 4.4 21:58:47 10° N 22:04:14 56° NE 22:04:14 56° NE
ATLAS 5 CENTAUR R/B 3.0 21:59:47 10° NNW 22:05:16 50° NE 22:05:22 50° NE
Cosmos 2366 rocket 4.3 22:05:41 10° N 22:11:05 60° NE 22:11:05 60° NE
CZ-4C R/B 3.9 22:06:45 10° NNW 22:13:35 44° NE 22:21:25 10° ESE
COSMOS 2406 3.9 22:10:10 10° NNW 22:14:32 50° N 22:14:32 50° N
Gbstr 26 Del rocket 4.3 22:16:35 56° N 22:16:35 56° N 22:21:21 10° NE
SL-16 R/B 2.9 22:20:15 55° E 22:20:40 56° ENE 22:26:47 10° N
USA 234 4.1 22:24:43 10° ENE 22:30:05 36° ESE 22:30:05 36° ESE
Cosmos 990 Rocket 4.4 22:53:07 59° NE 22:53:07 59° NE 22:57:30 10° NNE
Resurs 1-4 Rocket 2.4 22:50:45 10° N 22:55:10 62° N 22:55:10 62° N
Meteor 1-19 Rocket 4.5 22:57:14 58° NW 22:57:14 58° NW 23:01:55 10° N
Cosmos 923 Rocket 4.4 22:52:57 10° NNW 22:57:06 57° NNW 22:57:06 57° NNW
SJ 16-02 3.1 23:02:50 26° NNW 23:02:50 26° NNW 23:05:19 10° N
Meteor 2-4 Rocket 3.7 23:03:25 84° ESE 23:03:31 84° E 23:09:26 10° N
Cosmos 1937 Rocket 3.8 23:07:40 56° E 23:07:40 56° E 23:12:31 10° NNE
Okean 1-7 3.9 23:09:03 45° NNE 23:09:03 45° NNE 23:12:06 10° NNE
ARGOS Delta rocket 4.4 23:05:20 10° NNE 23:09:07 47° ENE 23:09:07 47° ENE
Cosmos 2082 Rocket 2.1 23:05:45 10° NNW 23:11:15 85° NNW 23:11:15 85° NNW
SL-19 R/B 4.3 23:07:18 10° NNE 23:13:27 75° WNW 23:13:44 74° W
CZ-2D R/B 2.5 23:08:28 10° N 23:13:28 55° NW 23:13:28 55° NW
Cosmos 1898 Rocket 3.5 23:15:27 82° N 23:15:27 82° N 23:20:31 10° NNE
Cosmos 1833 Rocket 4.0 23:09:58 10° NW 23:12:53 28° NW 23:12:53 28° NW
ARIANE 5 R/B 4.4 23:13:39 10° NE 23:17:53 24° E 23:20:26 17° SE
SL-4 R/B 2.5 23:25:37 75° NE 23:25:37 75° NE 23:30:19 10° ESE
NOSS 3-4 (A) 4.2 23:18:44 10° NNW 23:25:45 67° NE 23:33:34 10° SE
NOSS 3-4 (C) 4.2 23:18:50 10° NNW 23:25:52 67° NE 23:33:40 10° SE
ADEOS II 1.9 23:21:40 10° NNE 23:26:57 89° WNW 23:27:16 80° SSW
Cosmos 1943 Rocket 2.7 23:29:05 43° SSE 23:30:22 52° ESE 23:35:51 10° NNE
X-37B 2.9 23:32:41 24° ENE 23:32:41 24° ENE 23:34:06 10° ENE
Meteor 1-28 Rocket 4.0 23:32:51 47° NNE 23:32:51 47° NNE 23:35:41 10° N
Cosmos 2278 Rocket 3.3 23:33:50 29° WNW 23:34:21 29° NW 23:39:16 10° N
CBERS-1 4.0 23:30:18 10° NNE 23:35:26 76° ESE 23:36:12 62° SSE
Cosmos 2112 Rocket 3.9 23:32:33 10° NNW 23:37:47 67° WSW 23:37:47 67° WSW
ATLAS 2AS CENTAUR R/B 3.6 23:32:50 10° NNW 23:40:02 52° NE 23:46:39 10° ESE
Helios 1B rocket 4.4 23:41:08 10° NNW 23:43:07 19° NW 23:43:07 19° NW
IRS-1D 3.5 23:41:13 10° N 23:46:24 71° WNW 23:47:12 60° SW
Cosmos 1356 Rocket 4.0 23:42:20 10° N 23:46:25 56° ENE 23:47:44 38° SE
Cosmos 1066 Rocket 4.4 23:45:06 41° S 23:47:16 76° E 23:53:08 10° NNE
IDEFIX/ARIANE 42P 2.7 23:43:14 10° NNE 23:48:28 72° ESE 23:50:11 43° S
Cosmos 2239 Rocket 4.5 23:42:33 10° NNW 23:48:41 63° W 23:50:19 47° SSW
ADEOS Rocket 3.2 23:44:41 22° SSE 23:49:08 90° E 23:56:19 10° NNW
Milstar 3 3.8 23:49:05 29° S 23:49:53 30° S 23:57:48 10° ESE
ATLAS 5 CENTAUR R/B 3.8 23:44:37 10° NW 23:46:48 21° WNW 23:46:48 21° WNW
Sich 1 Rocket 3.8 23:48:40 10° N 23:53:16 74° E 23:54:59 38° SSE
